Location: Bailleul
(50.3375°N, 2.8513°E)
Time: 09:07:13
(UTC+00:00)

Cosmos 2227 Rocket - Pass Details

Date: 19 April 2021
Orbit: 840 x 844 km, 71.0° (Epoch: 05 May)

Event Time Altitude Azimuth Distance (km) Brightness Sun altitude
Rises 23:04:33 0° 252° (WSW) 3,398 5.3 -27.4°
Reaches altitude 10° 23:07:28 10° 266° (W) 2,466 4.7 -27.5°
Maximum altitude 23:12:00 24° 320° (NW) 1,677 4.3 -27.7°
Drops below altitude 10° 23:16:34 10° 13° (NNE) 2,473 5.5 -27.8°
Sets 23:19:31 0° 27° (NNE) 3,410 6.1 -27.8°
